Regional Weather Roundup
Issued by NWS

Home | Current Version | Previous Version | Graphics & Text | Print | Product List | Glossary Off
Versions: 1 2 3 4 5 6 7 8 9 10 11 12 13 14 15 16 17 18 19 20 21 22 23 24 25 26 27 28 29 30 31 32 33 34 35 36 37 38 39 40 41 42 43 44 45 46 47 48 49 50

000
ASUS43 KTOP 241208
RWRKS

WEATHER ROUNDUP FOR KANSAS
NATIONAL WEATHER SERVICE GOODLAND KS
700 AM CDT SAT SEP 24 2016

NOTE:  "FAIR" INDICATES FEW OR NO CLOUDS BELOW 12,000 FEET WITH NO
SIGNIFICANT WEATHER AND/OR OBSTRUCTIONS TO VISIBILITY.

KSZ001>006-013>018-027>032-041>047-241300-
NORTHWEST KANSAS

CITY           SKY/WX    TMP DP  RH WIND       PRES   REMARKS
GOODLAND       CLEAR     48  44  86 NW8       29.97R
6HR MIN TEMP:  48; 6HR MAX TEMP:  60; 6HR PCP: TRACE;

HAYS           CLOUDY    72  63  73 S9        29.89S THUNDER
HILL CITY      CLOUDY    63  62  97 SW6       29.90R
6HR MIN TEMP:  63; 6HR MAX TEMP:  75; 6HR PCP:  0.11;

RUSSELL        CLOUDY    74  66  76 S14G22    29.88R
6HR MIN TEMP:  71; 6HR MAX TEMP:  75;

$$

KSZ061>065-074>080-084>089-241300-
SOUTHWEST KANSAS

CITY           SKY/WX    TMP DP  RH WIND       PRES   REMARKS
DODGE CITY     MOCLDY    70  65  84 S7        29.91S
6HR MIN TEMP:  70; 6HR MAX TEMP:  74;

ELKHART          N/A     55  31  40 NW7         N/A
GARDEN CITY    CLOUDY    64  42  44 NW9       29.92F
6HR MIN TEMP:  64; 6HR MAX TEMP:  73;

GREAT BEND     MOCLDY    72  63  73 SE14      29.89S THUNDER
LIBERAL        CLOUDY    66  52  59 N6        29.95R
PRATT          MOCLDY    70  64  82 S17       29.92S
6HR MIN TEMP:  69; 6HR MAX TEMP:  73;

$$

KSZ066>073-081>083-090>101-241300-
SOUTHEAST KANSAS

CITY           SKY/WX    TMP DP  RH WIND       PRES   REMARKS
CHANUTE        CLEAR     71  68  90 SE7       30.02R
6HR MIN TEMP:  70; 6HR MAX TEMP:  73;

COFFEYVILLE    CLEAR     72  69  90 SE8       30.01R
6HR MIN TEMP:  71; 6HR MAX TEMP:  76;

HUTCHINSON     CLEAR     72  68  87 S12G20    29.93R
6HR MIN TEMP:  72; 6HR MAX TEMP:  76;

MEDICINE LODGE   N/A     72  66  81 SE7       29.92F
NEWTON         PTCLDY   N/A N/A N/A S9        29.96S
PARSONS        CLEAR     72  68  87 SE3       30.03R
6HR MIN TEMP:  72; 6HR MAX TEMP:  76;

WICHITA INTL   PTCLDY    73  69  87 S13       29.94S
6HR MIN TEMP:  73; 6HR MAX TEMP:  75;

WICHITA JABRA  PTCLDY    72  70  93 SE12      29.95S
6HR MIN TEMP:  72; 6HR MAX TEMP:  74;

WICHITA MCCONL PTCLDY    73  69  88 S15       29.95S
WINFIELD       CLOUDY    73  69  87 SE10      29.98R
6HR MIN TEMP:  72; 6HR MAX TEMP:  76;

$$

KSZ007>012-019>026-033>040-048>060-102>105-241300-
NORTHEAST KANSAS

CITY           SKY/WX    TMP DP  RH WIND       PRES   REMARKS
CONCORDIA      PTCLDY    71  68  90 SE15      29.90S
6HR MIN TEMP:  70; 6HR MAX TEMP:  73;

EMPORIA        CLEAR     71  67  87 SE14      29.99R
6HR MIN TEMP:  71; 6HR MAX TEMP:  73;

LAWRENCE       MOCLDY    68  67  96 E7        30.01R
6HR MIN TEMP:  67; 6HR MAX TEMP:  70;

MANHATTAN      PTCLDY    74  68  81 S12       29.94S
6HR MIN TEMP:  72; 6HR MAX TEMP:  76;

MARYSVILLE     CLOUDY    73  68  83 SE10G16   29.94S
OLATHE IND     CLEAR     70  66  87 S8        30.03R
6HR MIN TEMP:  70; 6HR MAX TEMP:  71;

OLATHE EXE     CLEAR     67  64  90 S5        30.03S
6HR MIN TEMP:  67; 6HR MAX TEMP:  71;

SALINA         CLEAR     75  68  78 S14       29.91R
6HR MIN TEMP:  72; 6HR MAX TEMP:  75;

TOPEKA BILLARD PTCLDY    71  66  84 SE7       29.99S
6HR MIN TEMP:  71; 6HR MAX TEMP:  74;

TOPEKA FORBES  CLEAR     71  66  84 SE8       29.99S
6HR MIN TEMP:  70; 6HR MAX TEMP:  72;

$$



USA.gov is the U.S. government's official web portal to all federal, state and local government web resources and services.